• In Uzbekistan
  • List of Countries
  • For 7 days
  • Water Temperature
  • Satellite Maps
  • Weather Map
  • Weather Widgets
  • user-avatar
    Login

    Hourly Weather Nakhchivan

    Today, 18 January, Wednesday

    Time Temperature Precipitation Wind Pressure Humidity
    00:00 -3°C° 0 mm 1 mps 688 mmHg 77%
    01:00 -3°C° 0 mm 1 mps 687 mmHg 77%
    02:00 -3°C° 0 mm 1 mps 687 mmHg 76%
    03:00 -3°C° 0 mm 1 mps 687 mmHg 74%
    04:00 -3°C° 0 mm 1 mps 687 mmHg 74%
    05:00 -3°C° 0 mm 1 mps 687 mmHg 74%
    06:00 -3°C° 0 mm 1 mps 687 mmHg 74%
    07:00 -2°C° 0 mm 1 mps 688 mmHg 73%
    08:00 0°C° 0 mm 1 mps 688 mmHg 71%
    09:00 +1°C° 0 mm 1 mps 688 mmHg 70%
    10:00 +3°C° 0 mm 1 mps 688 mmHg 72%
    11:00 +4°C° 0 mm 1 mps 688 mmHg 74%
    12:00 +6°C° 0 mm 1 mps 688 mmHg 76%
    13:00 +4°C° 0 mm 0 mps 688 mmHg 77%
    14:00 +4°C° 0 mm 0 mps 688 mmHg 79%
    15:00 +4°C° 0 mm 0 mps 688 mmHg 80%
    16:00 +2°C° 0 mm 0 mps 687 mmHg 80%
    17:00 +1°C° 0 mm 1 mps 687 mmHg 81%
    18:00 -2°C° 0 mm 1 mps 687 mmHg 81%
    19:00 -2°C° 0 mm 1 mps 687 mmHg 79%
    20:00 -2°C° 0 mm 1 mps 687 mmHg 78%
    21:00 -2°C° 0 mm 1 mps 687 mmHg 76%
    22:00 -2°C° 0 mm 1 mps 687 mmHg 75%
    23:00 -2°C° 0 mm 1 mps 687 mmHg 75%

    Tomorrow, 19 January, Thursday

    Time Temperature Precipitation Wind Pressure Humidity
    00:00 -3°C° 0 mm 1 mps 687 mmHg 74%
    01:00 -3°C° 0 mm 1 mps 687 mmHg 74%
    02:00 -3°C° 0 mm 1 mps 687 mmHg 74%
    03:00 -3°C° 0 mm 1 mps 687 mmHg 74%
    04:00 -3°C° 0 mm 1 mps 687 mmHg 74%
    05:00 -3°C° 0 mm 1 mps 687 mmHg 74%
    06:00 -3°C° 0 mm 1 mps 687 mmHg 74%
    07:00 -2°C° 0 mm 1 mps 687 mmHg 73%
    08:00 -1°C° 0 mm 1 mps 688 mmHg 72%
    09:00 +1°C° 0 mm 1 mps 688 mmHg 70%
    10:00 +2°C° 0 mm 1 mps 688 mmHg 70%
    11:00 +4°C° 0 mm 1 mps 688 mmHg 70%
    12:00 +5°C° 0 mm 1 mps 688 mmHg 70%
    13:00 +5°C° 0 mm 1 mps 688 mmHg 72%
    14:00 +5°C° 0 mm 1 mps 688 mmHg 74%
    15:00 +4°C° 0 mm 1 mps 687 mmHg 76%
    16:00 +2°C° 0 mm 1 mps 687 mmHg 78%
    17:00 0°C° 0 mm 1 mps 687 mmHg 81%
    18:00 -2°C° 0 mm 1 mps 687 mmHg 83%
    19:00 -4°C° 0 mm 0 mps 687 mmHg 83%
    20:00 -4°C° 0 mm 0 mps 687 mmHg 82%
    21:00 -4°C° 0 mm 0 mps 687 mmHg 82%
    22:00 -4°C° 0 mm 0 mps 687 mmHg 81%
    23:00 -4°C° 0 mm 0 mps 687 mmHg 81%

    Day after tomorrow, 20 January, Friday

    Time Temperature Precipitation Wind Pressure Humidity
    00:00 -4°C° 0 mm 0 mps 687 mmHg 80%
    01:00 -4°C° 0 mm 0 mps 687 mmHg 80%
    02:00 -4°C° 0 mm 0 mps 687 mmHg 80%
    03:00 -5°C° 0 mm 0 mps 687 mmHg 80%
    04:00 -5°C° 0 mm 0 mps 687 mmHg 80%
    05:00 -5°C° 0 mm 0 mps 688 mmHg 80%
    06:00 -5°C° 0 mm 0 mps 688 mmHg 80%
    07:00 -3°C° 0 mm 0 mps 688 mmHg 79%
    08:00 -2°C° 0 mm 0 mps 689 mmHg 77%
    09:00 -1°C° 0 mm 0 mps 690 mmHg 76%
    10:00 0°C° 0 mm 0 mps 690 mmHg 74%
    11:00 +2°C° 0 mm 1 mps 690 mmHg 72%
    12:00 +4°C° 0 mm 1 mps 690 mmHg 71%
    13:00 +3°C° 0 mm 1 mps 690 mmHg 72%
    14:00 +3°C° 0 mm 1 mps 689 mmHg 74%
    15:00 +3°C° 0 mm 1 mps 689 mmHg 76%
    16:00 +2°C° 0 mm 1 mps 689 mmHg 80%
    17:00 -1°C° 0 mm 0 mps 689 mmHg 84%
    18:00 -2°C° 0 mm 0 mps 689 mmHg 88%
    19:00 -3°C° 0 mm 0 mps 689 mmHg 88%
    20:00 -4°C° 0 mm 0 mps 689 mmHg 88%
    21:00 -4°C° 0 mm 0 mps 689 mmHg 89%
    22:00 -4°C° 0 mm 0 mps 689 mmHg 89%
    23:00 -5°C° 0 mm 0 mps 689 mmHg 89%

    21 January, Saturday

    Time Temperature Precipitation Wind Pressure Humidity
    00:00 -5°C° 0 mm 0 mps 689 mmHg 89%
    01:00 -5°C° 0 mm 0 mps 689 mmHg 89%
    02:00 -6°C° 0 mm 0 mps 689 mmHg 90%
    03:00 -6°C° 0 mm 0 mps 688 mmHg 90%
    04:00 -6°C° 0 mm 0 mps 688 mmHg 90%
    05:00 -6°C° 0 mm 0 mps 688 mmHg 91%
    06:00 -7°C° 0 mm 0 mps 688 mmHg 91%
    07:00 -5°C° 0 mm 0 mps 689 mmHg 89%
    08:00 -4°C° 0 mm 0 mps 689 mmHg 87%
    09:00 -3°C° 0 mm 0 mps 690 mmHg 85%
    10:00 -1°C° 0 mm 0 mps 689 mmHg 81%
    11:00 0°C° 0 mm 0 mps 689 mmHg 77%
    12:00 +2°C° 0 mm 1 mps 689 mmHg 73%
    13:00 +2°C° 0 mm 1 mps 689 mmHg 74%
    14:00 +2°C° 0 mm 1 mps 688 mmHg 75%
    15:00 +2°C° 0 mm 1 mps 688 mmHg 76%
    16:00 -1°C° 0 mm 0 mps 687 mmHg 81%
    17:00 -3°C° 0 mm 0 mps 687 mmHg 85%
    18:00 -4°C° 0 mm 0 mps 687 mmHg 89%
    19:00 -5°C° 0 mm 0 mps 687 mmHg 89%
    20:00 -5°C° 0 mm 0 mps 687 mmHg 89%
    21:00 -5°C° 0 mm 0 mps 687 mmHg 88%
    22:00 -6°C° 0 mm 0 mps 687 mmHg 88%
    23:00 -6°C° 0 mm 1 mps 687 mmHg 87%

    22 January, Sunday

    Time Temperature Precipitation Wind Pressure Humidity
    00:00 -6°C° 0 mm 1 mps 687 mmHg 87%
    01:00 -6°C° 0 mm 1 mps 687 mmHg 87%
    02:00 -6°C° 0 mm 1 mps 687 mmHg 87%
    03:00 -6°C° 0 mm 1 mps 686 mmHg 86%
    04:00 -6°C° 0 mm 1 mps 686 mmHg 86%
    05:00 -6°C° 0 mm 1 mps 686 mmHg 86%
    06:00 -7°C° 0 mm 1 mps 686 mmHg 86%
    07:00 -6°C° 0 mm 1 mps 687 mmHg 84%
    08:00 -4°C° 0 mm 1 mps 687 mmHg 81%
    09:00 -2°C° 0 mm 1 mps 688 mmHg 79%
    10:00 -1°C° 0 mm 1 mps 688 mmHg 75%
    11:00 0°C° 0 mm 1 mps 687 mmHg 71%
    12:00 -1°C° 0 mm 2 mps 687 mmHg 68%
    13:00 +1°C° 0 mm 1 mps 687 mmHg 68%
    14:00 +1°C° 0 mm 1 mps 687 mmHg 68%
    15:00 +1°C° 0 mm 1 mps 687 mmHg 69%
    16:00 -1°C° 0 mm 1 mps 687 mmHg 73%
    17:00 -2°C° 0 mm 1 mps 687 mmHg 77%
    18:00 -5°C° 0 mm 0 mps 688 mmHg 80%
    19:00 -5°C° 0 mm 0 mps 688 mmHg 80%
    20:00 -6°C° 0 mm 0 mps 688 mmHg 81%
    21:00 -6°C° 0 mm 0 mps 688 mmHg 81%
    22:00 -6°C° 0 mm 1 mps 689 mmHg 80%
    23:00 -6°C° 0 mm 1 mps 689 mmHg 80%

    23 January, Monday

    Time Temperature Precipitation Wind Pressure Humidity
    00:00 -6°C° 0 mm 1 mps 689 mmHg 79%
    01:00 -6°C° 0 mm 1 mps 689 mmHg 78%
    02:00 -6°C° 0 mm 1 mps 689 mmHg 78%
    03:00 -6°C° 0 mm 1 mps 690 mmHg 77%
    04:00 -6°C° 0 mm 1 mps 691 mmHg 77%
    05:00 -7°C° 0 mm 1 mps 691 mmHg 77%
    06:00 -8°C° 0 mm 2 mps 692 mmHg 77%
    07:00 -7°C° 0 mm 2 mps 693 mmHg 76%
    08:00 -4°C° 0 mm 1 mps 694 mmHg 74%
    09:00 -4°C° 0 mm 1 mps 695 mmHg 73%
    10:00 -5°C° 0 mm 2 mps 695 mmHg 69%
    11:00 -4°C° 0 mm 2 mps 695 mmHg 65%
    12:00 -3°C° 0 mm 2 mps 696 mmHg 61%
    13:00 -3°C° 0 mm 2 mps 695 mmHg 62%
    14:00 -1°C° 0 mm 1 mps 695 mmHg 63%
    15:00 -1°C° 0 mm 1 mps 695 mmHg 65%
    16:00 -3°C° 0 mm 1 mps 695 mmHg 69%
    17:00 -6°C° 0 mm 0 mps 695 mmHg 73%
    18:00 -8°C° 0 mm 0 mps 695 mmHg 77%
    19:00 -8°C° 0 mm 0 mps 696 mmHg 77%
    20:00 -8°C° 0 mm 0 mps 696 mmHg 77%
    21:00 -8°C° 0 mm 0 mps 696 mmHg 77%
    22:00 -8°C° 0 mm 0 mps 696 mmHg 77%
    23:00 -9°C° 0 mm 0 mps 696 mmHg 76%
    Show more